1514340000.3,21499,9.25,72354.3,-7.61,-9.01,-8.89,0,*56
1514340001.55,21500,9.25,72350.5,-7.61,-9.11,-8.89,0,*56
1514340002.76,21501,9.25,72350.3,-7.59,-8.93,-8.93,0,*5C
1514340004.01,21502,9.25,72352.5,-7.61,-9.11,-9.05,0,*51
1514340005.25,21503,9.25,72352.0,-7.61,-9.23,-9.15,0,*50
1514340006.45,21504,9.25,72352.3,-7.59,-8.97,-8.97,0,*59
1514340007.68,21505,9.25,72354.3,-7.59,-9.11,-8.97,0,*57
1514340008.96,21506,9.25,72352.5,-7.61,-9.15,-9.11,0,*54
1514340010.21,21507,9.19,72352.8,-7.61,-9.15,-9.01,0,*54
1514340011.44,21508,9.19,72354.8,-7.61,-9.01,-9.01,0,*5E
1514340012.67,21509,9.25,72352.8,-7.61,-9.01,-9.01,0,*5F
1514340013.95,21510,9.25,72352.5,-7.61,-9.11,-9.11,0,*57
1514340015.2,21511,9.25,72354.5,-7.61,-9.01,-9.11,0,*57
1514340016.43,21512,9.19,72350.5,-7.61,-9.01,-9.01,0,*55
1514340017.63,21513,9.25,72352.8,-7.59,-8.97,-8.93,0,*5B
1514340018.83,21514,9.25,72348.5,-7.59,-8.97,-8.93,0,*5C
1514340020.05,21515,9.25,72348.8,-7.61,-9.01,-8.97,0,*5C
1514340021.28,21516,9.19,72348.0,-7.61,-9.01,-8.97,0,*5F
1514340022.53,21517,9.25,72350.3,-7.61,-9.11,-8.97,0,*5F
1514340023.73,21518,9.19,72350.3,-7.59,-9.05,-9.05,0,*54
1514340024.93,21519,9.25,72348.3,-7.59,-9.05,-9.05,0,*55
1514340026.13,21520,9.25,72354.5,-7.59,-9.05,-8.97,0,*55
1514340027.34,21521,9.19,72350.8,-7.59,-9.05,-8.97,0,*54
1514340028.61,21522,9.19,72348.5,-7.61,-9.15,-9.11,0,*52
1514340029.89,21523,9.19,72350.3,-7.61,-9.15,-9.11,0,*53
1514340031.12,21524,9.19,72348.3,-7.59,-9.11,-8.97,0,*54
1514340032.4,21525,9.19,72350.0,-7.61,-9.11,-9.11,0,*51
1514340033.67,21526,9.25,72352.0,-7.61,-9.11,-9.11,0,*52
1514340034.87,21527,9.25,72350.3,-7.59,-9.05,-8.97,0,*52
1514340036.07,21528,9.25,72352.8,-7.59,-8.97,-8.97,0,*57
1514340037.27,21529,9.25,72356.0,-7.59,-8.97,-9.05,0,*5C
1514340038.5,21530,9.25,72356.5,-7.61,-9.01,-8.89,0,*54
1514340039.73,21531,9.25,72356.5,-7.61,-9.01,-8.97,0,*5A
1514340040.94,21532,9.25,72354.8,-7.61,-8.97,-8.97,0,*57
1514340042.15,21533,9.25,72354.0,-7.59,-8.93,-8.93,0,*5D
1514340043.35,21534,9.25,72352.3,-7.59,-8.97,-8.97,0,*5A
1514340044.6,21535,9.25,72350.5,-7.61,-9.01,-9.11,0,*51
1514340045.8,21536,9.25,72350.8,-7.59,-9.05,-8.97,0,*52
1514340047.05,21537,9.19,72350.3,-7.61,-9.11,-9.01,0,*53
1514340048.31,21538,9.19,72348.8,-7.61,-9.15,-9.05,0,*5C
1514340049.56,21539,9.25,72350.3,-7.61,-9.11,-9.01,0,*5D
1514340050.79,21540,9.25,72350.0,-7.59,-9.11,-9.05,0,*5C
1514340052.07,21541,9.25,72348.3,-7.61,-9.11,-9.11,0,*53
1514340053.32,21542,9.25,72352.8,-7.61,-9.15,-9.01,0,*55
1514340054.58,21543,9.19,72350.5,-7.61,-9.15,-9.01,0,*54
1514340055.83,21544,9.25,72352.3,-7.59,-9.11,-9.11,0,*5D
1514340057.03,21545,9.19,72350.0,-7.59,-9.19,-9.05,0,*51
1514340058.28,21546,9.19,72350.3,-7.61,-9.15,-9.23,0,*51
1514340059.53,21547,9.19,72354.0,-7.61,-9.23,-9.15,0,*50
1514340060.74,21548,9.25,72354.8,-7.61,-9.23,-9.23,0,*5A
1514340062.02,21549,9.19,72348.5,-7.61,-9.15,-9.15,0,*5B
1514340063.27,21550,9.25,72350.0,-7.61,-9.11,-9.01,0,*52
1514340064.48,21551,9.19,72348.8,-7.59,-8.93,-8.93,0,*59
1514340065.75,21552,9.19,72348.5,-7.61,-9.11,-9.11,0,*51
1514340066.95,21553,9.25,72350.5,-7.59,-8.97,-8.97,0,*5B
1514340068.16,21554,9.19,72344.8,-7.59,-8.93,-8.97,0,*58
1514340069.35,21555,9.25,72352.5,-7.59,-8.97,-8.97,0,*5D
1514340070.61,21556,9.25,72350.3,-7.61,-9.11,-9.01,0,*54
1514340071.86,21557,9.25,72350.8,-7.61,-9.11,-9.01,0,*55
1514340073.09,21558,9.25,72348.8,-7.61,-9.01,-8.97,0,*55
1514340074.3,21559,9.25,72352.3,-7.61,-8.97,-8.97,0,*5A
1514340075.51,21560,9.25,72352.3,-7.59,-9.05,-8.93,0,*55
1514340076.71,21561,9.25,72350.3,-7.59,-9.05,-8.97,0,*50
1514340077.98,21562,9.25,72348.3,-7.61,-9.11,-9.11,0,*52
1514340079.19,21563,9.25,72350.3,-7.59,-9.05,-9.05,0,*58
1514340080.42,21564,9.25,72348.8,-7.61,-9.01,-9.01,0,*54
1514340081.66,21565,9.25,72350.0,-7.61,-9.23,-9.11,0,*54
1514340082.92,21566,9.25,72354.0,-7.61,-9.15,-9.01,0,*53
1514340084.2,21567,9.25,72350.5,-7.61,-9.15,-9.11,0,*53
1514340085.47,21568,9.25,72354.8,-7.61,-9.15,-9.11,0,*5C
1514340086.72,21569,9.25,72354.0,-7.61,-9.23,-9.15,0,*5C
1514340087.99,21570,9.25,72354.3,-7.61,-9.15,-9.15,0,*51
1514340089.27,21571,9.25,72354.3,-7.61,-9.15,-9.15,0,*50
1514340090.52,21572,9.25,72352.3,-7.61,-9.15,-9.23,0,*56
1514340091.79,21573,9.19,72352.0,-7.61,-9.15,-9.15,0,*52
1514340093.05,21574,9.25,72352.5,-7.59,-9.11,-9.11,0,*5E
1514340094.25,21575,9.25,72354.8,-7.59,-9.05,-9.05,0,*5F
1514340095.53,21576,9.25,72354.0,-7.61,-9.15,-9.11,0,*53
1514340096.73,21577,9.25,72354.0,-7.59,-8.97,-8.97,0,*5D
1514340098.01,21578,9.25,72348.3,-7.61,-9.15,-9.11,0,*5D
1514340099.24,21579,9.19,72346.8,-7.59,-9.15,-9.05,0,*52
1514340100.49,21580,9.25,72350.3,-7.61,-9.11,-9.01,0,*5F
1514340101.77,21581,9.25,72350.3,-7.61,-9.11,-9.11,0,*5F
1514340102.97,21582,9.25,72350.0,-7.59,-9.05,-8.97,0,*5D
1514340104.2,21583,9.25,72350.3,-7.59,-9.19,-9.11,0,*5E
1514340105.42,21584,9.25,72350.0,-7.59,-9.19,-9.11,0,*59
1514340106.67,21585,9.25,72350.3,-7.61,-9.15,-9.23,0,*5E
1514340107.95,21586,9.25,72350.5,-7.61,-9.15,-9.15,0,*58
1514340109.15,21587,9.25,72350.3,-7.59,-9.05,-9.05,0,*52
1514340110.4,21588,9.19,72350.8,-7.61,-9.11,-9.01,0,*57
1514340111.66,21589,9.25,72350.5,-7.61,-9.15,-9.01,0,*52
1514340112.89,21590,9.25,72352.0,-7.59,-9.11,-8.97,0,*5B
1514340114.17,21591,9.25,72350.3,-7.61,-9.15,-9.11,0,*5A
1514340115.41,21592,9.25,72350.3,-7.61,-9.23,-9.11,0,*5C
1514340116.69,21593,9.25,72354.8,-7.61,-9.15,-9.11,0,*58
1514340117.91,21594,9.19,72354.8,-7.61,-9.23,-9.23,0,*5B
1514340119.15,21595,9.25,72354.8,-7.61,-9.23,-9.15,0,*5F
1514340120.41,21596,9.19,72350.8,-7.61,-9.15,-9.01,0,*5C
1514340121.68,21597,9.25,72350.8,-7.61,-9.15,-9.15,0,*58
1514340122.93,21598,9.19,72348.0,-7.61,-9.23,-9.15,0,*52
1514340124.2,21599,9.25,72354.8,-7.61,-9.15,-9.15,0,*56
1514340125.47,21600,9.25,72352.5,-7.61,-9.15,-9.15,0,*55
1514340126.72,21601,9.25,72350.5,-7.61,-9.15,-9.23,0,*51
1514340127.97,21602,9.19,72348.3,-7.61,-9.23,-9.15,0,*52
1514340129.25,21603,9.25,72352.3,-7.61,-9.15,-9.11,0,*52
1514340130.52,21604,9.25,72350.3,-7.61,-9.15,-9.11,0,*55
1514340131.8,21605,9.25,72348.3,-7.61,-9.15,-9.15,0,*50
1514340133.05,21606,9.25,72348.8,-7.61,-9.01,-9.11,0,*52
1514340134.3,21607,9.25,72348.8,-7.61,-9.11,-9.01,0,*53
1514340135.51,21608,9.25,72350.8,-7.59,-9.05,-9.05,0,*56
1514340136.76,21609,9.25,72350.8,-7.61,-9.11,-9.01,0,*5D
1514340137.99,21610,9.25,72350.3,-7.61,-9.01,-9.01,0,*54
1514340139.22,21611,9.19,72346.5,-7.61,-9.01,-9.01,0,*55
1514340140.45,21612,9.25,72352.0,-7.61,-9.01,-9.01,0,*56
1514340141.68,21613,9.19,72344.3,-7.61,-9.01,-9.01,0,*57
1514340142.91,21614,9.19,72344.3,-7.61,-9.01,-9.01,0,*50
1514340144.13,21615,9.19,72344.3,-7.61,-9.01,-8.97,0,*5F
1514340145.34,21616,9.25,72348.5,-7.59,-8.97,-8.85,0,*5A
1514340146.54,21617,9.25,72346.5,-7.59,-8.93,-8.93,0,*58
1514340147.76,21618,9.25,72348.8,-7.61,-8.97,-8.97,0,*5C
1514340148.99,21619,9.25,72350.5,-7.61,-9.01,-9.01,0,*5D
1514340150.19,21620,9.19,72348.5,-7.59,-8.97,-9.05,0,*56
1514340151.39,21621,9.25,72350.3,-7.59,-8.97,-8.97,0,*5D
1514340152.61,21622,9.19,72346.0,-7.61,-9.01,-9.01,0,*55
1514340153.89,21623,9.25,72348.5,-7.61,-9.11,-9.11,0,*54
1514340155.09,21624,9.19,72344.5,-7.59,-8.97,-9.05,0,*52
1514340156.29,21625,9.19,72346.8,-7.59,-9.05,-8.97,0,*53
1514340157.49,21626,9.19,72346.5,-7.59,-8.97,-8.97,0,*5A
1514340158.71,21627,9.25,72348.3,-7.61,-9.01,-8.97,0,*5E
1514340159.91,21628,9.25,72350.3,-7.59,-8.97,-8.93,0,*50
1514340161.12,21629,9.25,72348.5,-7.59,-9.05,-8.93,0,*5B
1514340162.32,21630,9.25,72348.5,-7.59,-9.05,-8.97,0,*57
1514340163.52,21631,9.25,72344.0,-7.59,-9.05,-8.97,0,*56
1514340164.72,21632,9.25,72346.0,-7.59,-8.97,-8.97,0,*5F
1514340165.92,21633,9.25,72346.8,-7.59,-8.97,-8.93,0,*5A
1514340167.15,21634,9.25,72348.8,-7.61,-9.01,-9.01,0,*52
1514340168.37,21635,9.19,72344.5,-7.59,-8.97,-9.11,0,*57
1514340169.57,21636,9.25,72350.0,-7.59,-9.05,-8.97,0,*51
1514340170.83,21637,9.25,72348.5,-7.61,-9.11,-9.01,0,*50
1514340172.1,21638,9.25,72350.8,-7.61,-9.11,-9.11,0,*5E
1514340173.33,21639,9.25,72348.0,-7.61,-9.01,-9.01,0,*5F
1514340174.54,21640,9.25,72348.3,-7.59,-9.05,-8.97,0,*50
1514340175.73,21641,9.25,72350.0,-7.59,-8.97,-9.05,0,*51
1514340176.94,21642,9.25,72350.3,-7.59,-9.05,-9.05,0,*58
1514340178.14,21643,9.25,72348.8,-7.59,-8.97,-9.05,0,*53
1514340179.34,21644,9.19,72344.0,-7.59,-8.97,-8.97,0,*5E
1514340180.54,21645,9.25,72350.3,-7.59,-8.97,-9.01,0,*51
1514340181.74,21646,9.25,72350.5,-7.59,-8.97,-8.93,0,*58
1514340182.96,21647,9.25,72348.3,-7.61,-9.01,-8.97,0,*58
1514340184.24,21648,9.19,72346.5,-7.61,-9.11,-9.11,0,*59
1514340185.46,21649,9.25,72348.0,-7.61,-8.97,-8.97,0,*58
1514340186.69,21650,9.25,72348.5,-7.61,-9.01,-9.01,0,*50
1514340187.96,21651,9.25,72344.5,-7.61,-9.11,-9.11,0,*51
1514340189.16,21652,9.25,72346.3,-7.59,-8.97,-9.05,0,*53
1514340190.39,21653,9.25,72340.8,-7.61,-9.01,-9.01,0,*53
1514340191.64,21654,9.25,72340.0,-7.61,-9.11,-9.01,0,*55
1514340192.87,21655,9.25,72346.3,-7.61,-9.01,-8.89,0,*54
1514340194.08,21656,9.25,72344.5,-7.59,-8.93,-8.93,0,*5D
1514340195.28,21657,9.25,72346.3,-7.59,-8.93,-8.93,0,*5C
1514340196.49,21658,9.19,72342.8,-7.59,-8.93,-8.93,0,*53
1514340197.69,21659,9.25,72348.8,-7.59,-8.85,-8.93,0,*55
1514340198.9,21660,9.25,72348.0,-7.59,-8.93,-8.93,0,*58
1514340200.1,21661,9.25,72348.5,-7.59,-8.93,-8.93,0,*59
1514340201.31,21662,9.19,72344.3,-7.59,-9.05,-8.85,0,*53
1514340202.51,21663,9.25,72348.8,-7.59,-9.05,-8.93,0,*55
1514340203.71,21664,9.19,72344.3,-7.59,-9.05,-8.93,0,*52
1514340204.92,21665,9.25,72350.0,-7.59,-9.05,-8.93,0,*53
1514340206.11,21666,9.25,72350.0,-7.59,-8.97,-8.97,0,*5E
1514340207.36,21667,9.25,72348.8,-7.61,-9.11,-8.97,0,*5B
1514340208.56,21668,9.25,72348.0,-7.59,-8.97,-8.93,0,*54
1514340209.81,21669,9.19,72346.0,-7.61,-9.11,-8.89,0,*5A
1514340211.02,21670,9.19,72344.0,-7.59,-8.93,-8.93,0,*59
1514340212.22,21671,9.25,72344.8,-7.59,-8.93,-8.93,0,*58
1514340213.43,21672,9.25,72346.5,-7.59,-8.85,-8.93,0,*5C
1514340214.64,21673,9.25,72348.5,-7.59,-8.85,-8.85,0,*5A
1514340215.84,21674,9.25,72346.3,-7.59,-8.93,-8.93,0,*5D
1514340217.05,21675,9.19,72344.5,-7.59,-8.85,-8.85,0,*5C
1514340218.26,21676,9.25,72348.8,-7.59,-8.93,-8.85,0,*58
1514340219.47,21677,9.25,72346.3,-7.59,-8.85,-8.85,0,*5E
1514340220.68,21678,9.25,72348.5,-7.59,-8.93,-8.85,0,*56
1514340221.9,21679,9.25,72344.5,-7.57,-8.97,-8.93,0,*5A
1514340223.12,21680,9.25,72346.5,-7.57,-8.97,-8.97,0,*58
1514340224.32,21681,9.25,72346.8,-7.59,-8.97,-8.97,0,*57
1514340225.53,21682,9.19,72344.5,-7.59,-8.93,-8.85,0,*53
1514340226.73,21683,9.25,72350.8,-7.59,-8.93,-8.93,0,*55
1514340227.93,21684,9.19,72346.3,-7.59,-8.97,-8.85,0,*51
1514340229.13,21685,9.25,72346.0,-7.59,-8.97,-8.93,0,*57
1514340230.33,21686,9.25,72344.3,-7.59,-8.97,-8.97,0,*50
1514340231.53,21687,9.19,72344.3,-7.59,-9.05,-8.97,0,*5B
1514340232.74,21688,9.25,72348.3,-7.59,-9.05,-8.93,0,*50
1514340233.93,21689,9.25,72346.8,-7.59,-8.97,-8.97,0,*5F
1514340235.14,21690,9.19,72342.3,-7.59,-8.93,-8.97,0,*53
1514340236.34,21691,9.25,72344.0,-7.59,-8.97,-8.93,0,*52
1514340237.54,21692,9.25,72342.0,-7.59,-8.97,-8.93,0,*51
1514340238.79,21693,9.25,72346.5,-7.61,-9.11,-9.01,0,*5E
1514340240.04,21694,9.25,72340.8,-7.61,-9.11,-8.97,0,*57
1514340241.24,21695,9.25,72346.0,-7.59,-9.05,-8.97,0,*58
1514340242.49,21696,9.19,72342.3,-7.61,-9.11,-9.01,0,*5B
1514340243.7,21697,9.25,72346.0,-7.59,-9.05,-9.05,0,*50
1514340244.9,21698,9.25,72344.0,-7.59,-9.05,-8.97,0,*55
1514340246.1,21699,9.19,72340.5,-7.59,-9.05,-8.97,0,*54
1514340247.33,21700,9.25,72344.0,-7.61,-9.01,-9.01,0,*54
1514340248.53,21701,9.25,72344.8,-7.59,-8.97,-8.85,0,*5D
1514340249.74,21702,9.25,72348.0,-7.59,-8.93,-8.93,0,*5D
1514340250.94,21703,9.19,72346.3,-7.59,-8.85,-8.93,0,*5B
1514340252.14,21704,9.25,72348.0,-7.59,-8.97,-8.93,0,*5F
1514340253.34,21705,9.25,72348.3,-7.59,-8.97,-8.85,0,*59
1514340254.57,21706,9.25,72348.3,-7.61,-8.97,-8.89,0,*5D
1514340255.77,21707,9.25,72352.0,-7.59,-8.97,-8.85,0,*5B
1514340256.98,21708,9.25,72350.5,-7.59,-8.93,-8.85,0,*50
1514340258.18,21709,9.25,72344.3,-7.59,-8.93,-8.93,0,*56
1514340259.38,21710,9.25,72348.5,-7.59,-8.97,-8.93,0,*5A
1514340260.58,21711,9.25,72344.0,-7.59,-9.05,-8.93,0,*51
1514340261.78,21712,9.25,72346.3,-7.59,-8.97,-8.97,0,*5C
1514340262.98,21713,9.25,72344.8,-7.59,-8.97,-8.97,0,*5D
1514340264.18,21714,9.19,72342.0,-7.59,-9.05,-9.05,0,*5A
1514340265.46,21715,9.25,72344.5,-7.61,-9.11,-9.11,0,*50
1514340266.66,21716,9.25,72348.0,-7.59,-9.05,-8.97,0,*52
1514340267.86,21717,9.25,72342.3,-7.59,-9.05,-9.05,0,*59
1514340269.06,21718,9.19,72342.3,-7.59,-8.97,-9.05,0,*5C
1514340270.26,21719,9.19,72342.0,-7.59,-8.97,-8.97,0,*57
1514340271.46,21720,9.19,72344.5,-7.59,-8.97,-8.97,0,*5D
1514340272.66,21721,9.19,72346.0,-7.59,-8.93,-8.97,0,*58
1514340273.87,21722,9.25,72348.8,-7.59,-8.93,-8.93,0,*5F
1514340275.07,21723,9.25,72346.0,-7.59,-8.93,-8.93,0,*5E
1514340276.27,21724,9.25,72346.0,-7.59,-8.97,-8.85,0,*5A
1514340277.48,21725,9.19,72344.8,-7.59,-8.93,-8.93,0,*58
1514340278.69,21726,9.19,72344.3,-7.59,-8.93,-8.85,0,*5C
1514340279.89,21727,9.25,72350.5,-7.59,-8.93,-8.93,0,*5A
1514340281.1,21728,9.25,72350.5,-7.59,-8.85,-8.93,0,*52
1514340282.31,21729,9.25,72348.0,-7.59,-8.93,-8.85,0,*53
1514340283.51,21730,9.25,72350.5,-7.59,-8.85,-8.85,0,*5C
1514340284.72,21731,9.25,72350.0,-7.59,-8.93,-8.93,0,*5D
1514340285.93,21732,9.25,72350.0,-7.59,-8.93,-8.85,0,*59
1514340287.14,21733,9.25,72344.3,-7.59,-8.93,-8.85,0,*58
1514340288.36,21734,9.25,72338.5,-7.61,-8.97,-8.89,0,*5C
1514340289.56,21735,9.19,72338.8,-7.59,-8.93,-8.93,0,*59
1514340290.77,21736,9.25,72342.5,-7.59,-8.93,-8.93,0,*5A
1514340291.97,21737,9.25,72344.0,-7.59,-8.93,-8.93,0,*5B
1514340293.18,21738,9.19,72344.0,-7.59,-8.93,-8.93,0,*54
1514340294.43,21739,9.25,72342.5,-7.61,-9.11,-9.01,0,*5F
1514340295.69,21740,9.25,72342.5,-7.59,-9.11,-9.11,0,*5B
1514340296.94,21741,9.25,72346.3,-7.61,-9.01,-9.11,0,*50
1514340298.16,21742,9.25,72344.8,-7.57,-8.97,-8.97,0,*57
1514340299.38,21743,9.25,72348.5,-7.57,-8.97,-8.93,0,*52
1514340300.61,21744,9.25,72346.5,-7.61,-9.01,-8.97,0,*5A
1514340301.81,21745,9.25,72344.0,-7.59,-9.05,-8.97,0,*54
1514340303.01,21746,9.25,72344.0,-7.59,-8.97,-8.97,0,*5D
1514340304.21,21747,9.25,72344.5,-7.59,-8.97,-8.97,0,*5C
1514340305.41,21748,9.25,72350.5,-7.59,-8.97,-8.93,0,*57
1514340306.6,21749,9.25,72350.5,-7.59,-8.97,-8.93,0,*56
1514340307.8,21750,9.25,72346.8,-7.59,-8.97,-8.93,0,*5E
1514340309.01,21751,9.25,72344.0,-7.59,-8.97,-8.85,0,*58
1514340310.23,21752,9.25,72348.3,-7.61,-9.01,-8.97,0,*5D
1514340311.45,21753,9.25,72348.3,-7.61,-8.97,-8.89,0,*5D
1514340312.66,21754,9.25,72344.3,-7.59,-8.93,-8.93,0,*5E
1514340313.89,21755,9.25,72344.3,-7.61,-9.01,-8.89,0,*55
1514340315.11,21756,9.25,72350.3,-7.61,-8.97,-8.89,0,*58
1514340316.31,21757,9.25,72350.0,-7.59,-8.85,-8.97,0,*5E
1514340317.52,21758,9.25,72344.8,-7.59,-8.93,-8.93,0,*52
1514340318.72,21759,9.25,72344.5,-7.59,-8.93,-8.93,0,*53
1514340319.93,21760,9.25,72346.3,-7.59,-8.93,-8.93,0,*59
1514340321.12,21761,9.25,72346.5,-7.59,-8.97,-8.93,0,*5C
1514340322.33,21762,9.25,72348.8,-7.59,-8.93,-8.93,0,*5B
1514340323.53,21763,9.19,72344.3,-7.59,-8.97,-8.97,0,*5A
1514340324.76,21764,9.25,72348.5,-7.61,-9.01,-8.89,0,*57
1514340325.95,21765,9.25,72352.0,-7.59,-8.97,-8.93,0,*58
1514340327.16,21766,9.25,72348.8,-7.59,-9.05,-8.93,0,*51
1514340328.36,21767,9.25,72348.3,-7.59,-9.05,-8.93,0,*50
1514340329.61,21768,9.25,72350.0,-7.61,-9.11,-9.01,0,*5B
1514340330.81,21769,9.25,72348.3,-7.59,-8.97,-8.97,0,*50
1514340332.01,21770,9.25,72348.3,-7.59,-8.97,-8.93,0,*5C
1514340333.24,21771,9.25,72348.0,-7.61,-9.01,-9.01,0,*52
1514340334.44,21772,9.19,72346.8,-7.59,-8.97,-8.93,0,*5E
1514340335.64,21773,9.19,72344.3,-7.59,-9.05,-8.93,0,*55
1514340336.84,21774,9.25,72344.3,-7.59,-8.97,-8.93,0,*58
1514340338.07,21775,9.25,72344.0,-7.61,-9.01,-8.97,0,*58
1514340339.29,21776,9.25,72344.8,-7.59,-9.11,-9.05,0,*5B
1514340340.49,21777,9.19,72342.3,-7.59,-8.97,-8.93,0,*5B
1514340341.69,21778,9.19,72342.3,-7.59,-8.97,-8.97,0,*50
1514340342.95,21779,9.25,72346.5,-7.61,-9.11,-9.01,0,*5B
1514340344.22,21780,9.25,72348.0,-7.61,-9.15,-9.11,0,*58
1514340345.45,21781,9.19,72342.0,-7.59,-9.11,-8.97,0,*59
1514340346.65,21782,9.25,72350.5,-7.59,-9.05,-8.97,0,*5F
1514340347.88,21783,9.25,72346.3,-7.61,-9.01,-9.01,0,*5F
1514340349.14,21784,9.25,72348.5,-7.61,-9.11,-9.01,0,*59
1514340350.34,21785,9.25,72348.8,-7.59,-9.05,-9.05,0,*52
1514340351.54,21786,9.25,72344.5,-7.59,-9.05,-8.97,0,*5B
1514340352.77,21787,9.19,72344.5,-7.59,-9.11,-9.05,0,*55
1514340353.97,21788,9.25,72344.8,-7.59,-9.05,-8.97,0,*55
1514340355.18,21789,9.25,72346.0,-7.59,-9.05,-8.97,0,*54
1514340356.45,21790,9.19,72342.5,-7.61,-9.11,-9.15,0,*59
1514340357.65,21791,9.19,72344.8,-7.59,-9.05,-8.97,0,*5D
1514340358.85,21792,9.19,72344.5,-7.59,-9.05,-9.05,0,*54
1514340360.06,21793,9.19,72346.5,-7.59,-9.05,-9.05,0,*55
1514340361.28,21794,9.19,72348.8,-7.61,-9.05,-8.97,0,*53
1514340362.53,21795,9.19,72348.8,-7.61,-9.11,-9.01,0,*59
1514340363.73,21796,9.25,72348.8,-7.59,-8.97,-8.97,0,*50
1514340364.93,21797,9.25,72348.5,-7.59,-9.05,-8.97,0,*5B
1514340366.14,21798,9.25,72350.8,-7.59,-9.05,-9.05,0,*5E
1514340367.34,21799,9.25,72354.3,-7.59,-9.05,-8.93,0,*51
1514340368.57,21800,9.25,72348.0,-7.61,-9.01,-8.89,0,*5A
1514340369.78,21801,9.25,72350.0,-7.59,-8.97,-8.81,0,*56
1514340370.99,21802,9.19,72346.8,-7.59,-9.05,-8.93,0,*5C
1514340372.19,21803,9.25,72350.8,-7.59,-9.05,-8.93,0,*5D
1514340373.39,21804,9.25,72348.5,-7.59,-9.05,-8.97,0,*5E
1514340374.59,21805,9.25,72348.8,-7.59,-8.97,-8.85,0,*56
1514340375.8,21806,9.25,72344.3,-7.59,-8.97,-8.85,0,*55
1514340377.04,21807,9.25,72348.8,-7.61,-9.11,-8.97,0,*53
1514340378.24,21808,9.25,72348.5,-7.59,-8.97,-8.97,0,*58
1514340379.47,21809,9.25,72350.8,-7.61,-9.01,-8.97,0,*5C
1514340380.69,21810,9.25,72350.0,-7.57,-8.97,-8.85,0,*5C
1514340381.9,21811,9.25,72350.3,-7.59,-8.93,-8.93,0,*50
1514340383.13,21812,9.25,72348.8,-7.61,-9.01,-9.01,0,*58
1514340384.33,21813,9.25,72348.3,-7.59,-8.97,-8.97,0,*52
1514340385.53,21814,9.25,72350.8,-7.59,-9.05,-9.05,0,*55
1514340386.81,21815,9.25,72350.0,-7.61,-9.15,-9.11,0,*5B
1514340388.04,21816,9.25,72350.0,-7.59,-9.11,-8.97,0,*58
1514340389.26,21817,9.25,72350.0,-7.59,-9.11,-8.97,0,*59
1514340390.49,21818,9.25,72352.0,-7.59,-9.11,-9.05,0,*5C
1514340391.7,21819,9.25,72352.3,-7.59,-9.19,-9.05,0,*55
1514340392.97,21820,9.25,72348.5,-7.61,-9.11,-9.11,0,*59
1514340394.2,21821,9.25,72350.0,-7.61,-9.01,-8.97,0,*56
1514340395.4,21822,9.25,72348.8,-7.59,-8.93,-8.93,0,*50
1514340396.66,21823,9.19,72348.3,-7.61,-9.11,-9.01,0,*5B
1514340397.89,21824,9.25,72350.8,-7.59,-9.15,-9.05,0,*57
1514340399.09,21825,9.25,72346.3,-7.59,-9.05,-9.05,0,*57
1514340400.36,21826,9.19,72346.5,-7.61,-9.11,-9.15,0,*5B
1514340401.59,21827,9.19,72346.3,-7.59,-9.19,-9.11,0,*5D
1514340402.82,21828,9.25,72348.0,-7.59,-9.11,-9.05,0,*5F
1514340404.02,21829,9.25,72352.0,-7.59,-9.05,-8.97,0,*51
1514340405.25,21830,9.19,72348.8,-7.61,-9.01,-8.97,0,*56
1514340406.47,21831,9.25,72346.5,-7.61,-8.97,-8.97,0,*59
1514340407.69,21832,9.19,72346.8,-7.61,-9.01,-8.97,0,*54
1514340408.89,21833,9.25,72350.5,-7.59,-8.93,-8.93,0,*50
1514340410.12,21834,9.25,72350.5,-7.61,-8.89,-8.89,0,*5C
1514340411.35,21835,9.25,72350.0,-7.61,-9.01,-8.89,0,*5C
1514340412.57,21836,9.25,72344.8,-7.61,-8.97,-8.89,0,*51
1514340413.78,21837,9.25,72344.3,-7.59,-8.93,-8.93,0,*54
1514340414.98,21838,9.25,72340.8,-7.59,-8.97,-8.93,0,*5F
1514340416.18,21839,9.25,72340.5,-7.59,-8.97,-8.93,0,*5E
1514340417.37,21840,9.25,72344.0,-7.59,-8.97,-8.93,0,*50
1514340418.57,21841,9.19,72340.5,-7.59,-8.97,-8.97,0,*55
1514340419.78,21842,9.25,72346.5,-7.59,-8.93,-8.93,0,*56
1514340421.0,21843,9.25,72344.0,-7.57,-8.97,-8.85,0,*5A
1514340422.23,21844,9.25,72346.8,-7.57,-9.05,-8.97,0,*54
1514340423.43,21845,9.25,72344.0,-7.59,-9.05,-8.93,0,*5F
1514340424.63,21846,9.25,72344.5,-7.59,-9.05,-8.97,0,*58
1514340425.85,21847,9.25,72344.0,-7.57,-8.97,-8.97,0,*5D
1514340427.08,21848,9.25,72350.5,-7.57,-9.05,-9.05,0,*52
1514340428.36,21849,9.25,72344.0,-7.57,-9.11,-9.11,0,*53
1514340429.59,21850,9.25,72346.8,-7.59,-9.11,-9.19,0,*5D
1514340430.82,21851,9.25,72344.8,-7.59,-9.11,-9.05,0,*51
1514340432.07,21852,9.19,72344.3,-7.59,-9.11,-9.11,0,*57
1514340433.35,21853,9.19,72340.5,-7.61,-9.11,-9.15,0,*59
1514340434.6,21854,9.25,72346.5,-7.59,-9.11,-9.11,0,*51
1514340435.81,21855,9.25,72346.8,-7.59,-9.05,-9.05,0,*50
1514340437.01,21856,9.19,72340.5,-7.59,-8.97,-9.05,0,*59
1514340438.21,21857,9.25,72346.5,-7.59,-9.05,-8.97,0,*58
1514340439.43,21858,9.25,72342.5,-7.61,-9.01,-8.97,0,*58
1514340440.63,21859,9.25,72346.8,-7.59,-8.97,-8.97,0,*5C
1514340441.84,21860,9.25,72348.8,-7.59,-9.01,-9.01,0,*56
1514340443.04,21861,9.25,72344.5,-7.59,-9.05,-8.97,0,*5D
1514340444.25,21862,9.25,72348.8,-7.59,-9.01,-8.97,0,*5A
1514340445.45,21863,9.19,72340.3,-7.59,-8.97,-8.85,0,*56
1514340446.67,21864,9.25,72346.0,-7.61,-9.01,-8.97,0,*57
1514340447.9,21865,9.25,72348.8,-7.61,-9.01,-8.97,0,*56
1514340449.1,21866,9.19,72346.0,-7.59,-8.97,-8.97,0,*50
1514340450.3,21867,9.25,72344.0,-7.59,-9.05,-8.93,0,*5F
1514340451.51,21868,9.25,72346.8,-7.59,-8.93,-8.93,0,*5E
1514340452.72,21869,9.25,72344.3,-7.59,-9.01,-9.01,0,*5F
1514340453.92,21870,9.25,72342.5,-7.59,-9.05,-8.93,0,*59
1514340455.12,21871,9.25,72346.0,-7.59,-9.05,-8.93,0,*58
1514340456.32,21872,9.25,72348.3,-7.59,-8.97,-8.97,0,*55
1514340457.52,21873,9.19,72346.8,-7.59,-8.97,-8.97,0,*54
1514340458.72,21874,9.25,72346.3,-7.59,-9.05,-8.93,0,*5D
1514340459.94,21875,9.25,72344.3,-7.61,-8.97,-8.97,0,*59
1514340461.14,21876,9.25,72344.5,-7.59,-8.97,-8.93,0,*55
1514340462.36,21877,9.25,72346.8,-7.61,-8.97,-8.97,0,*5B
1514340463.55,21878,9.25,72346.5,-7.59,-8.97,-8.97,0,*5F
1514340464.78,21879,9.25,72350.8,-7.61,-9.01,-9.01,0,*55
1514340466.01,21880,9.25,72350.3,-7.57,-9.05,-8.97,0,*5C
1514340467.23,21881,9.25,72346.8,-7.57,-9.05,-8.93,0,*59
1514340468.43,21882,9.19,72346.8,-7.59,-8.97,-8.97,0,*5A
1514340469.63,21883,9.19,72344.0,-7.59,-8.97,-8.97,0,*5B
1514340470.86,21884,9.19,72342.5,-7.57,-8.93,-8.85,0,*55
1514340472.09,21885,9.25,72342.3,-7.57,-8.93,-8.85,0,*54
1514340473.3,21886,9.19,72340.0,-7.59,-8.93,-8.93,0,*5E
1514340474.5,21887,9.19,72342.5,-7.59,-8.97,-8.97,0,*5F
1514340475.7,21888,9.25,72342.3,-7.59,-8.93,-8.97,0,*54
1514340476.9,21889,9.25,72346.3,-7.59,-8.97,-8.93,0,*55
1514340478.1,21890,9.25,72346.3,-7.59,-8.97,-8.93,0,*5D
1514340479.3,21891,9.25,72346.8,-7.59,-8.97,-8.97,0,*58
1514340480.51,21892,9.25,72344.5,-7.59,-9.01,-9.01,0,*5B
1514340481.73,21893,9.25,72346.5,-7.57,-8.97,-8.97,0,*54
1514340482.96,21894,9.25,72344.8,-7.57,-9.05,-8.97,0,*59
1514340484.18,21895,9.25,72342.5,-7.57,-9.05,-8.97,0,*58
1514340485.39,21896,9.25,72346.3,-7.59,-9.05,-8.85,0,*56
1514340486.59,21897,9.25,72344.5,-7.59,-8.97,-8.93,0,*5A
1514340487.81,21898,9.25,72348.8,-7.61,-9.01,-9.01,0,*5A
1514340489.01,21899,9.25,72348.5,-7.59,-8.97,-8.97,0,*50
1514340490.24,21900,9.25,72348.5,-7.61,-9.01,-9.01,0,*5A
1514340491.45,21901,9.25,72346.3,-7.59,-9.05,-8.97,0,*5A
1514340492.64,21902,9.19,72342.5,-7.59,-8.97,-9.05,0,*59
1514340493.85,21903,9.25,72344.0,-7.59,-9.05,-9.05,0,*52
1514340495.05,21904,9.25,72346.3,-7.59,-8.97,-9.05,0,*5F
1514340496.27,21905,9.19,72342.5,-7.57,-8.97,-8.97,0,*5A
1514340497.49,21906,9.25,72348.3,-7.57,-8.97,-9.05,0,*53
1514340498.72,21907,9.25,72344.8,-7.57,-9.05,-8.93,0,*56
1514340499.92,21908,9.25,72346.0,-7.59,-8.97,-8.97,0,*59
1514340501.11,21909,9.25,72346.8,-7.59,-8.97,-8.93,0,*5C
1514340502.31,21910,9.25,72348.0,-7.59,-8.97,-8.93,0,*54
1514340503.51,21911,9.19,72346.3,-7.59,-9.05,-8.97,0,*5B
1514340504.72,21912,9.25,72340.8,-7.59,-9.05,-9.05,0,*52
1514340505.92,21913,9.25,72346.0,-7.59,-8.97,-8.93,0,*57
1514340507.14,21914,9.25,72346.5,-7.57,-8.97,-8.97,0,*5A
1514340508.36,21915,9.25,72344.5,-7.57,-8.97,-8.97,0,*5B
1514340509.59,21916,9.25,72344.3,-7.57,-9.05,-9.05,0,*58
1514340510.81,21917,9.25,72346.5,-7.57,-9.05,-9.05,0,*59
1514340512.09,21918,9.25,72342.8,-7.57,-9.11,-9.11,0,*56
1514340513.35,21919,9.25,72342.8,-7.59,-9.11,-9.11,0,*59